Theta_e
353 349 350 356 355 356 355 356 357 357 358 357 358 358 357 356 356 355 355 354 353 353 353 353 352 352 352 352 352 352 352 352 353 352 352 351 351 351 351 351 351 351 351 351 351 351 352 352 352 351 351 351 350 349 350 350 349 349 349 349 349 348 347 348 348 349 348 347 348 348 346 346 348 347 346 347 347 346 345 345 344 342 344 343 342
351 349 352 356 355 356 356 355 356 356 357 357 357 357 356 355 355 355 354 354 353 353 353 353 352 352 352 352 352 353 352 352 352 351 351 351 351 351 351 351 351 351 351 350 351 352 352 350 352 351 351 351 351 349 350 349 349 349 349 349 348 348 348 348 348 348 349 349 348 348 346 347 346 345 347 347 346 345 345 344 343 342 342 341 341
352 349 351 355 356 356 355 355 355 356 356 356 356 356 355 355 354 355 354 353 353 353 353 352 352 352 352 352 352 352 352 352 351 351 351 351 352 351 351 350 350 351 351 351 351 351 352 352 351 351 351 351 351 351 349 349 349 348 348 348 348 348 348 348 348 348 347 348 348 348 346 346 345 346 345 344 344 342 341 341 340 340 338 338 339
351 351 352 355 355 355 355 355 355 355 356 355 355 355 355 354 354 354 354 353 353 352 352 352 352 352 352 352 352 352 352 351 351 351 351 352 351 351 350 351 350 351 350 350 350 350 350 349 349 349 350 350 351 351 350 349 348 347 347 348 348 348 347 347 347 347 346 346 346 345 347 346 345 343 344 343 342 341 340 339 337 336 335 335 335
350 350 353 353 354 355 355 355 355 355 355 355 355 355 354 354 354 354 353 353 352 352 352 351 352 352 351 352 352 352 352 352 351 352 351 351 351 351 350 350 350 350 350 350 350 349 349 349 349 348 348 351 350 349 349 348 348 347 346 347 348 348 347 347 347 346 346 346 346 347 346 345 344 342 342 341 340 340 339 338 337 336 336 335 335
351 351 351 351 351 354 354 354 354 354 355 354 354 354 354 354 354 353 352 352 352 351 352 352 352 352 352 352 352 352 352 352 352 351 351 351 351 351 351 351 350 350 350 350 350 349 350 350 349 349 349 349 350 349 348 347 347 347 347 346 347 347 346 346 346 345 345 345 346 345 345 345 343 341 342 341 341 339 339 337 335 334 335 334 334
352 351 349 349 352 353 355 354 353 353 353 354 354 354 354 353 353 353 352 352 351 351 352 352 353 353 353 353 352 352 351 352 351 351 351 351 351 351 350 350 350 350 350 350 350 350 350 349 350 351 351 350 350 349 348 347 347 347 347 346 346 346 345 345 345 344 342 346 345 344 344 343 343 342 341 340 339 339 336 335 336 336 334 333 333
352 349 349 349 350 354 353 353 353 353 354 354 354 353 353 353 353 353 352 351 352 352 353 353 353 353 353 352 352 351 351 351 351 351 351 351 351 350 350 349 349 349 349 349 350 350 350 351 350 349 349 350 349 348 347 347 347 346 346 345 345 345 345 344 344 344 343 343 343 343 343 343 341 340 340 340 338 336 334 331 332 332 332 335 335
350 348 348 347 350 353 353 353 353 353 354 353 353 353 353 353 353 353 352 352 352 353 354 353 353 352 352 352 352 351 351 351 352 351 350 351 351 350 350 349 349 349 349 349 350 350 351 351 351 349 350 350 349 348 347 346 346 346 346 345 344 344 343 343 343 343 343 342 343 342 342 340 339 338 337 335 334 335 335 332 335 336 337 337 335
349 351 351 349 349 354 353 353 353 353 353 353 353 353 353 353 353 353 352 352 352 353 354 353 352 352 352 352 352 351 351 351 352 353 351 350 350 349 350 350 349 349 349 350 350 350 351 351 349 351 350 349 348 347 346 346 346 346 346 344 343 343 342 342 346 342 342 340 341 341 340 341 336 336 336 335 339 341 340 340 339 338 338 336 333
350 350 350 349 349 354 353 353 353 353 353 353 353 353 353 353 353 353 352 352 353 353 353 352 352 352 352 351 351 351 351 352 353 352 351 350 349 349 349 350 349 349 349 349 350 351 351 350 351 350 350 349 348 347 346 346 345 344 343 342 342 341 340 340 346 341 341 338 339 339 338 339 336 337 338 336 336 338 338 338 337 337 335 333 332
350 351 351 349 354 354 353 352 353 353 353 353 353 353 352 353 353 353 352 353 353 353 352 352 352 352 352 352 352 352 352 353 352 352 351 350 349 349 349 349 350 349 350 350 351 351 352 351 351 350 348 348 347 346 346 345 344 343 342 341 341 340 339 342 337 338 338 338 337 337 335 335 335 335 335 334 333 336 336 334 334 333 332 331 331
349 348 350 353 352 353 353 352 352 352 352 352 352 352 352 353 353 353 353 353 353 352 352 352 352 351 352 352 351 351 351 352 352 352 352 350 350 350 351 351 351 350 350 351 351 351 351 350 350 349 348 347 347 345 345 344 343 342 341 340 339 338 338 341 337 337 337 337 337 335 332 334 335 335 339 340 340 338 337 335 332 329 328 334 334
348 348 351 349 350 353 353 353 352 352 352 352 352 352 352 353 353 353 353 353 353 352 352 351 351 351 351 351 351 351 351 351 352 351 352 351 350 351 351 351 351 351 351 351 351 350 350 350 349 349 348 347 346 345 344 343 342 341 340 339 337 337 338 339 338 337 337 334 336 334 335 335 338 339 339 338 338 338 336 336 334 334 336 335 334
349 350 351 348 351 351 353 353 353 352 352 352 352 353 353 353 353 353 353 352 353 352 351 351 350 350 351 351 350 350 350 350 351 351 351 351 351 350 351 351 351 351 351 351 351 350 350 348 349 347 347 346 345 343 342 341 341 339 339 338 337 335 334 334 334 334 335 335 334 332 333 335 338 337 336 335 335 335 334 337 337 336 336 333 332
350 350 350 350 348 350 351 353 353 352 352 352 352 353 353 353 353 353 352 352 352 352 351 350 350 350 350 350 350 350 350 350 350 350 351 351 350 350 351 351 351 350 351 350 350 350 350 349 348 347 346 344 343 342 341 340 340 338 337 337 336 334 337 336 334 334 334 333 333 333 331 336 335 333 333 336 336 337 335 335 334 333 332 331 329
351 350 348 348 346 347 347 350 351 352 352 352 353 353 353 353 353 353 352 352 352 352 351 350 350 350 350 349 349 350 350 350 350 350 350 350 350 350 350 350 350 350 350 350 351 350 349 348 348 346 344 343 342 341 340 339 338 337 336 336 335 333 337 337 333 333 332 332 333 333 332 332 334 335 336 336 336 334 332 331 330 330 331 331 331
351 349 347 345 345 344 346 347 349 351 351 352 353 353 353 353 353 352 352 352 351 350 350 350 350 350 349 349 349 350 350 350 349 350 350 350 350 350 349 349 350 350 350 350 350 350 348 347 346 345 343 342 341 341 340 339 338 337 336 336 335 336 337 337 334 333 333 335 333 333 334 335 335 335 335 335 334 332 330 329 328 329 330 331 330
350 348 348 346 343 343 344 346 347 345 348 349 350 352 353 353 352 352 351 351 350 350 350 350 350 350 349 350 349 349 349 349 349 349 349 349 350 349 349 349 350 349 349 350 350 349 348 346 345 344 343 342 341 340 340 339 337 336 336 336 335 335 336 336 334 334 335 335 334 333 332 335 334 334 332 333 333 332 332 333 333 333 333 332 331
350 349 347 346 342 342 343 346 346 347 346 346 348 350 351 351 351 351 351 350 350 350 350 349 349 350 349 349 349 350 350 350 349 350 349 349 349 349 350 349 349 349 349 349 348 348 347 346 345 344 342 342 341 340 339 338 336 335 335 335 335 338 335 334 334 335 333 330 330 331 334 334 331 330 333 332 334 334 333 333 332 332 331 330 330
348 348 346 345 342 340 342 344 346 348 348 348 347 349 348 351 351 350 350 349 350 350 350 349 349 349 349 350 350 352 351 351 351 350 350 350 350 350 350 349 349 349 348 348 348 347 346 345 344 343 342 342 342 340 339 338 336 335 335 335 339 333 335 336 337 337 336 334 334 332 335 334 332 331 332 332 334 334 333 332 329 328 331 330 330
348 347 347 345 345 342 342 340 344 345 347 347 345 347 349 349 350 350 350 351 350 350 351 351 350 352 350 352 352 350 349 349 350 350 351 351 351 349 350 350 349 348 348 348 348 347 346 345 344 344 343 343 342 340 338 337 335 335 335 339 336 336 336 337 337 337 336 336 334 334 335 333 332 333 334 334 333 331 329 330 330 330 330 329 329
345 347 346 346 346 345 342 340 342 345 347 346 344 347 347 346 346 347 348 349 350 351 349 349 348 346 347 347 348 350 347 347 349 348 351 348 350 349 349 349 349 348 348 348 348 347 346 345 344 343 344 344 345 343 339 335 337 335 338 337 337 336 337 336 336 337 335 333 332 331 333 334 334 334 334 333 332 331 330 330 329 329 328 327 326
346 346 345 346 345 345 342 342 343 345 346 345 346 346 345 347 346 346 348 348 350 349 349 348 346 344 344 348 347 350 350 350 351 351 350 348 350 349 349 349 348 349 348 349 347 347 346 345 344 345 345 346 344 341 341 341 340 341 339 337 336 336 336 336 334 335 335 332 330 333 333 333 333 333 333 332 331 331 331 330 330 330 329 329 328
346 349 347 345 344 348 346 344 344 346 343 344 345 344 346 345 346 346 345 345 347 347 347 349 348 346 346 345 345 350 349 348 349 349 350 349 348 348 349 347 348 349 348 346 348 347 346 342 342 345 345 343 342 342 342 341 342 340 339 338 337 337 336 336 335 335 334 333 332 333 332 332 331 330 331 332 331 330 330 331 330 329 328 327 328
335 339 338 342 346 350 352 348 344 343 344 345 343 344 346 342 344 345 346 345 346 346 346 348 350 349 343 343 345 349 349 348 349 348 349 351 350 349 351 350 348 348 348 348 347 348 347 345 345 344 343 344 342 343 342 343 341 340 339 339 338 337 336 336 336 335 335 334 333 331 333 332 331 330 331 332 332 332 331 331 331 330 329 329 328
338 334 334 341 344 344 349 347 344 343 346 345 344 346 344 343 344 346 345 345 346 346 346 346 348 349 345 346 345 345 345 346 347 347 346 347 347 348 348 350 349 348 350 348 348 348 347 346 345 345 343 342 341 341 341 342 341 339 339 338 338 337 336 337 337 335 334 333 333 333 333 333 332 332 331 332 332 332 331 331 330 329 328 328 328
338 335 334 340 344 342 348 345 346 345 346 344 347 344 344 345 344 345 343 344 344 344 345 347 349 348 350 347 344 345 344 345 348 347 346 347 345 345 348 347 347 347 349 349 348 346 346 347 347 344 341 342 340 341 341 341 341 342 339 340 340 338 337 336 337 338 335 335 334 333 332 332 333 331 330 332 331 331 330 330 330 330 329 328 326
337 338 340 340 342 344 343 345 345 345 345 347 345 342 346 346 346 344 343 347 346 345 346 350 349 347 351 348 347 343 340 342 344 347 348 348 347 346 344 344 346 345 348 348 348 348 348 347 347 345 345 343 342 342 341 341 343 343 341 340 340 338 337 337 337 338 336 336 335 333 332 333 332 331 330 331 331 329 329 330 329 328 328 327 328
335 338 340 339 341 345 344 341 342 349 346 347 347 349 348 346 345 344 346 346 345 348 352 348 347 345 346 348 348 347 342 339 341 341 343 346 347 349 348 345 344 345 347 348 348 347 347 347 347 346 343 344 342 342 341 341 341 342 342 341 341 339 338 336 337 336 337 336 336 334 331 330 332 332 332 331 330 329 329 329 328 328 327 327 327
332 335 339 337 340 338 338 342 348 348 347 346 348 349 349 348 346 347 349 344 348 351 348 347 347 347 346 350 349 349 347 343 342 340 341 340 342 345 345 346 344 344 346 346 349 348 348 347 348 347 346 344 343 343 341 342 342 342 342 341 342 341 339 338 336 336 335 335 335 336 333 330 332 332 332 331 330 329 329 329 329 327 327 327 328
332 333 336 336 336 339 339 340 344 349 348 347 347 348 348 347 348 347 346 346 351 347 345 348 347 347 349 350 350 349 348 347 344 342 340 339 337 338 341 342 342 343 345 345 345 348 348 346 348 350 350 348 345 345 344 342 341 341 341 340 342 341 339 338 337 336 336 336 335 335 336 333 330 333 332 331 330 329 329 328 329 329 329 328 328
336 338 337 336 336 339 340 341 344 347 347 346 347 349 349 347 347 347 347 347 349 347 345 347 349 350 351 350 351 349 348 347 347 345 342 338 339 340 337 341 342 344 346 345 345 347 346 347 347 348 347 347 346 345 343 344 342 342 342 341 342 340 340 339 338 337 335 335 335 335 334 334 333 330 332 332 330 329 329 329 329 328 328 328 327
335 340 337 335 337 340 341 340 343 345 347 347 348 348 349 348 348 348 347 347 347 346 346 348 348 349 350 350 350 349 347 347 345 347 344 341 344 340 338 337 340 343 346 347 343 343 342 343 343 345 343 344 343 343 343 342 342 342 343 342 342 342 342 339 338 337 338 337 336 336 334 334 333 334 331 329 330 330 329 329 328 326 328 328 327
337 340 338 338 338 342 342 341 345 346 347 347 346 348 349 348 347 348 347 347 347 346 346 348 348 349 348 348 349 349 347 348 346 346 345 343 340 337 339 337 341 341 340 341 343 343 343 342 341 341 343 344 343 342 340 342 341 339 340 343 342 341 342 340 339 338 337 338 337 335 336 335 334 334 334 332 330 329 329 329 328 327 327 327 327
339 340 341 340 340 344 344 343 344 346 348 345 345 347 349 350 349 348 348 348 345 345 345 347 347 346 347 348 349 349 348 350 348 348 346 344 339 338 338 341 343 339 338 340 341 340 341 341 342 341 339 338 340 341 341 339 340 340 341 342 341 341 341 341 341 339 339 338 337 337 336 335 336 334 335 335 334 332 329 329 329 328 327 327 327
339 342 341 342 343 343 343 340 341 346 345 347 348 350 349 349 349 349 349 348 346 344 344 345 347 347 345 345 348 350 349 350 350 348 346 345 340 341 338 346 345 338 341 340 338 339 340 337 342 342 341 337 335 336 337 340 339 341 341 341 341 341 341 342 341 342 339 338 337 337 337 336 336 335 336 335 336 334 330 329 328 328 328 328 327
337 341 343 342 342 343 343 344 344 345 345 347 347 348 348 347 348 348 347 345 346 342 342 343 345 346 346 345 348 348 348 348 350 348 346 345 343 342 344 349 342 343 343 340 336 339 340 338 339 339 339 338 334 335 337 339 339 339 340 341 341 340 340 340 341 341 340 339 338 337 337 337 337 336 336 336 336 337 334 330 329 328 328 327 327
336 340 341 341 344 344 345 343 344 345 345 346 347 346 346 345 345 346 345 345 345 344 341 341 344 347 347 347 348 348 347 349 349 350 349 346 343 343 346 348 343 344 345 341 341 341 341 341 339 338 338 337 336 338 339 339 339 339 339 341 341 341 340 339 340 339 340 340 339 338 337 338 338 336 336 336 335 336 335 335 331 331 330 327 327
333 336 335 335 336 337 341 343 343 343 346 345 344 343 342 342 341 342 341 342 343 341 341 341 345 344 346 347 348 348 346 348 348 348 349 347 344 342 345 347 344 344 344 341 340 339 343 344 341 339 338 336 338 339 340 340 339 339 339 341 341 342 341 339 340 340 340 341 340 340 339 339 338 337 336 335 336 335 336 336 335 332 333 329 327
331 333 333 333 334 336 337 341 343 344 343 342 342 341 340 339 340 340 339 342 340 340 341 343 344 344 346 346 348 347 348 348 347 347 347 347 347 344 345 346 345 344 346 344 345 343 344 344 341 342 338 335 335 338 341 341 337 335 339 339 340 342 341 341 340 340 340 339 340 339 340 339 338 337 337 337 336 337 335 335 335 335 334 331 329
331 332 332 335 338 337 341 342 343 343 343 343 342 342 343 340 339 339 340 339 339 338 339 343 345 345 346 347 347 346 347 347 347 347 347 347 347 345 346 345 346 346 347 347 347 346 347 346 345 340 338 334 333 337 341 339 334 331 331 333 335 340 342 341 340 340 341 342 342 341 341 339 337 338 338 337 337 336 336 336 336 335 333 332 333
337 335 336 338 340 341 342 343 343 343 343 344 343 342 343 343 342 341 340 339 341 343 342 343 345 343 347 346 346 346 346 346 347 347 347 347 347 346 347 345 348 347 347 347 346 346 347 347 346 338 333 335 333 342 344 341 332 335 335 332 329 329 335 337 340 340 339 340 341 341 342 339 338 339 338 338 337 337 337 337 336 335 336 334 333
335 337 338 339 340 341 342 342 342 344 343 344 343 345 345 345 345 346 344 342 340 342 344 344 343 344 344 345 345 346 345 345 346 346 346 347 347 346 348 346 348 350 348 346 346 344 346 347 346 342 337 332 329 339 346 344 336 336 328 329 328 329 324 330 333 337 340 340 340 339 340 341 342 339 339 338 337 337 337 338 336 337 337 336 334
337 338 338 339 340 339 342 343 343 343 344 345 346 345 344 344 344 345 346 344 345 343 341 339 341 343 343 345 345 346 345 345 346 346 344 345 346 346 346 345 346 348 349 346 347 347 347 347 347 344 340 334 330 337 344 344 342 340 333 330 327 326 325 327 331 333 338 335 336 336 339 340 341 342 339 339 339 338 338 338 338 338 338 337 336
338 340 340 340 339 340 342 344 344 345 346 346 346 342 342 341 340 339 337 337 336 336 336 337 339 341 340 345 346 345 345 345 345 345 344 344 345 346 347 345 344 348 348 347 346 346 347 345 346 346 342 341 336 335 339 344 344 343 340 337 336 327 326 329 328 322 337 339 339 337 339 341 342 341 340 339 339 338 339 338 339 338 338 338 337
337 339 340 340 340 340 341 342 342 337 336 337 338 338 339 341 342 340 340 338 336 338 340 341 342 342 344 344 345 348 346 346 346 345 345 345 346 347 347 346 344 347 348 348 346 346 346 345 346 346 344 343 339 334 338 339 342 343 342 341 340 340 338 332 326 328 325 334 337 338 338 337 340 338 338 339 339 339 340 340 339 338 338 338 338
337 338 339 340 339 340 342 340 334 333 334 336 335 337 339 340 340 342 342 340 339 340 341 342 345 345 344 345 346 345 346 345 345 344 345 345 345 346 347 345 344 347 345 345 346 346 347 348 348 348 346 345 345 339 338 339 337 338 341 340 341 341 340 340 338 331 327 325 330 338 339 340 340 340 339 339 339 339 340 341 339 338 338 338 338
333 335 337 339 340 341 341 333 334 333 336 336 336 336 338 340 340 339 339 340 339 338 339 341 345 345 344 346 347 346 347 346 345 346 345 345 346 346 346 345 346 346 346 346 346 346 346 347 348 347 346 346 346 345 341 339 341 338 339 339 339 337 337 338 337 337 330 328 327 329 333 338 339 339 341 342 342 341 341 341 342 339 339 339 339
329 332 335 338 338 341 336 329 331 335 334 335 337 336 337 339 339 340 340 340 341 340 342 339 340 344 342 342 341 341 346 348 348 347 347 345 345 346 345 345 347 347 346 348 347 346 346 347 348 348 348 347 347 345 343 342 342 342 339 340 337 337 336 335 336 334 334 333 328 327 329 331 331 336 341 342 343 342 342 342 343 341 339 339 339
326 329 329 332 336 339 334 330 332 333 334 334 334 335 338 340 339 339 340 340 341 340 341 342 342 338 336 335 337 337 339 346 349 348 348 346 346 346 346 346 348 348 347 347 347 346 347 347 348 349 348 347 346 346 345 345 344 342 342 340 338 337 335 333 334 334 334 332 330 329 331 330 331 331 339 344 344 341 341 342 341 341 341 341 340
Wind_Speed
14 17 17 18 17 18 18 19 18 17 19 20 19 18 18 19 20 20 19 19 19 18 18 17 16 16 16 16 16 15 15 15 15 15 16 16 17 17 16 16 17 17 17 17 17 17 17 17 17 17 17 17 16 16 16 15 16 16 16 16 17 16 16 17 17 17 18 19 19 18 18 17 18 18 17 16 18 17 17 15 14 13 13 15 18
18 17 16 18 18 18 18 20 20 20 19 19 19 19 19 19 20 19 19 19 18 18 17 16 16 16 15 15 16 15 15 16 15 16 16 16 17 17 17 17 16 16 16 16 16 17 16 16 16 17 17 17 16 16 15 15 15 16 16 16 16 16 16 17 17 17 18 18 19 20 20 20 19 17 19 19 19 19 17 17 16 12 12 17 18
17 15 15 19 20 18 19 20 22 21 20 21 21 20 20 20 20 19 19 19 19 18 17 17 15 16 15 16 15 15 15 16 16 16 16 16 17 17 17 17 16 16 16 15 15 15 14 13 14 16 16 16 16 15 15 15 15 15 16 16 15 15 16 16 16 16 17 18 19 20 21 21 20 18 19 19 18 18 19 18 17 16 12 16 15
17 14 14 18 20 19 19 21 21 21 21 21 22 22 22 21 20 20 20 19 19 18 18 17 16 14 15 15 15 15 15 15 16 16 16 16 16 17 17 16 16 16 16 15 14 13 12 12 12 14 14 15 15 15 15 15 14 15 15 15 15 15 15 15 14 14 14 13 14 11 11 13 16 19 19 19 18 18 18 18 18 18 17 15 16
15 14 14 15 18 19 20 21 23 22 22 21 22 21 22 21 20 20 20 19 19 18 18 17 16 15 15 16 15 14 15 15 15 15 15 15 16 16 16 16 16 16 15 14 13 13 13 13 12 12 12 14 15 15 15 14 14 14 14 14 14 15 14 14 13 12 12 12 11 9 11 14 13 18 18 18 18 18 17 17 17 17 16 16 16
14 13 14 13 15 16 18 19 22 23 22 22 23 22 20 20 20 20 20 19 18 17 17 16 16 15 15 15 15 14 15 15 14 15 15 15 16 16 16 16 15 15 15 14 13 14 14 14 13 13 14 13 14 15 15 14 14 14 13 14 14 14 13 12 11 9 6 8 11 10 11 12 13 13 19 18 18 18 17 17 16 15 16 18 18
15 13 13 13 13 16 16 18 21 22 23 23 23 22 20 20 21 21 20 19 18 17 16 16 15 14 14 15 15 15 15 15 14 15 15 15 16 16 16 15 15 14 14 14 14 14 15 15 15 15 14 14 14 15 15 14 14 14 13 13 13 13 12 10 9 6 3 4 8 9 10 13 13 11 17 17 17 17 18 16 16 15 16 15 17
12 12 13 12 13 16 18 16 20 22 22 21 22 22 21 20 20 21 20 19 18 16 15 15 15 15 15 15 16 15 15 15 14 14 15 15 15 15 15 15 14 14 13 14 14 15 16 16 16 16 15 15 15 15 14 14 14 14 14 14 13 12 10 9 7 6 5 8 8 10 10 12 13 11 16 16 15 16 17 16 14 15 15 17 15
13 14 13 13 14 20 18 17 18 21 21 20 20 22 21 20 21 20 21 20 18 17 15 16 16 16 16 15 15 15 15 14 14 14 15 15 15 14 14 14 14 13 13 14 14 15 15 15 15 15 15 15 14 15 15 14 13 14 14 13 12 10 7 6 3 4 6 8 10 10 11 12 12 12 16 17 16 16 14 13 16 19 19 18 17
14 13 13 12 15 19 18 18 19 20 21 21 20 21 21 20 20 20 20 20 19 17 16 16 17 17 16 15 15 15 15 15 13 13 14 15 15 15 14 13 13 13 14 14 15 15 15 15 15 14 14 14 15 15 14 13 14 14 14 13 10 7 5 2 7 11 7 9 12 13 13 13 12 13 16 17 19 19 21 22 18 17 16 17 17
16 13 13 14 19 20 19 17 18 20 20 21 21 21 21 21 20 19 20 19 19 18 17 17 16 16 16 16 16 16 15 13 13 13 13 15 15 15 14 12 12 12 13 14 15 15 14 14 14 14 14 15 15 15 14 14 14 14 13 12 9 6 5 4 2 7 9 11 11 11 14 16 12 12 16 16 17 19 20 20 19 17 17 18 18
16 15 14 14 20 19 18 17 17 18 20 20 21 20 21 20 20 18 19 19 19 18 17 16 16 15 14 15 15 15 15 13 13 13 14 15 15 15 14 14 13 13 13 14 14 14 14 14 14 14 14 14 15 14 14 15 15 13 13 11 10 7 6 8 8 8 10 11 11 11 13 13 13 13 15 14 16 17 17 18 17 16 15 16 16
17 15 15 16 17 18 17 17 16 18 20 19 19 19 19 20 20 18 19 20 19 18 17 17 16 16 15 14 15 16 15 14 13 13 14 15 16 16 15 15 15 14 14 13 14 14 14 14 14 14 14 14 15 14 14 14 14 14 12 11 9 7 8 7 9 9 10 10 10 13 14 12 12 15 18 19 20 19 18 17 16 14 15 18 17
16 16 15 17 14 20 18 17 16 17 19 19 19 19 19 18 18 17 18 18 17 17 16 16 16 16 15 14 15 15 16 15 14 14 14 15 16 16 16 15 15 14 14 14 14 14 14 14 14 15 15 15 14 14 14 14 14 13 12 10 7 4 8 9 11 9 8 12 13 12 12 11 13 18 17 19 19 18 17 18 17 19 20 19 18
16 17 17 16 16 18 20 18 16 17 18 17 18 17 17 17 17 16 16 16 16 15 15 15 16 15 15 14 15 15 15 15 15 15 15 15 16 17 16 16 15 14 14 14 14 15 14 14 14 14 14 14 14 14 13 14 14 13 12 10 8 5 1 9 7 9 11 11 9 12 12 12 16 16 17 16 17 17 17 19 19 19 19 19 19
16 17 17 16 18 17 17 18 18 17 17 17 17 17 17 17 16 16 16 15 15 15 15 15 15 15 15 14 14 15 15 15 15 16 15 15 16 16 16 15 15 14 13 14 14 15 15 15 14 14 14 13 14 13 14 14 14 13 12 10 7 7 8 10 8 9 9 10 10 10 12 12 15 15 16 18 18 18 18 19 19 19 19 17 15
16 17 17 18 19 17 16 17 17 19 17 19 17 17 17 17 17 16 16 15 15 15 15 15 15 15 14 13 13 13 14 15 15 15 15 16 17 16 16 15 15 14 13 13 14 15 15 15 15 14 14 14 14 14 14 15 15 14 12 10 7 4 11 11 9 9 9 10 9 10 9 10 14 16 18 18 17 18 17 17 17 16 15 15 16
18 17 17 19 18 18 16 16 18 17 16 18 18 19 18 17 18 17 17 16 15 15 15 15 14 14 14 14 14 14 14 14 14 14 15 16 17 16 16 15 14 14 13 13 14 15 15 15 14 14 14 14 14 15 15 15 15 14 12 10 7 11 13 10 10 11 11 11 10 10 10 13 15 16 16 16 16 16 15 14 15 16 16 16 15
17 17 17 18 19 18 17 16 17 17 17 14 13 17 20 20 19 19 19 17 17 16 16 15 14 14 14 15 15 15 14 15 15 14 15 15 17 17 15 15 14 14 13 13 14 15 15 14 14 14 14 14 15 15 15 15 14 13 11 9 10 10 11 10 10 10 11 9 9 9 10 16 15 15 15 15 15 16 17 17 17 16 16 16 16
16 17 17 17 18 18 17 16 16 16 15 15 15 15 19 20 20 20 19 18 19 17 16 15 15 14 15 16 16 15 15 14 15 13 14 16 15 14 15 15 14 14 13 14 15 15 15 14 14 14 14 14 15 15 14 14 13 11 9 7 7 9 9 9 11 9 9 9 8 9 12 13 12 12 15 15 16 16 17 17 17 16 16 15 15
13 17 16 16 18 18 19 15 16 17 16 15 14 15 16 19 19 20 19 19 17 17 16 16 14 14 14 15 15 12 12 12 12 12 14 12 15 15 15 15 15 14 14 14 15 15 15 14 14 14 14 15 15 15 14 14 12 9 7 5 9 9 9 9 9 8 9 9 9 9 14 13 13 13 14 15 16 16 16 15 14 16 16 15 15
15 15 16 17 16 16 18 17 14 18 16 13 12 12 14 16 16 16 14 16 16 16 13 11 12 11 12 12 10 9 9 9 11 12 10 13 14 15 15 16 15 14 14 15 15 15 14 14 14 14 15 16 17 10 11 12 10 7 6 7 9 8 9 9 8 8 9 8 7 11 13 12 13 14 15 16 15 14 14 16 16 15 14 14 15
16 15 15 18 16 15 16 17 17 16 16 14 12 13 15 13 14 14 12 15 14 13 11 12 10 11 11 8 8 7 9 10 9 10 10 13 14 15 15 16 15 14 14 15 14 14 14 14 14 13 14 17 8 7 9 8 6 9 7 9 8 8 8 9 8 8 8 8 8 12 13 13 13 14 15 15 16 16 15 14 14 15 14 13 13
17 15 16 15 16 13 16 15 17 17 14 12 12 12 12 12 11 11 11 11 12 10 11 10 9 10 8 7 7 8 9 9 13 15 14 12 13 15 16 15 15 14 16 13 14 13 13 12 11 12 11 7 6 6 7 6 6 6 8 7 8 7 7 7 7 8 8 9 9 13 12 13 13 14 14 14 15 15 14 15 15 14 15 14 14
5 2 2 13 15 12 11 13 14 15 15 12 13 12 12 11 11 11 11 10 10 10 9 9 8 8 8 7 9 8 8 9 10 9 9 10 10 10 11 10 9 10 12 10 9 9 9 9 8 9 4 6 6 6 6 7 6 6 7 8 8 7 7 6 7 7 7 9 9 13 12 12 12 12 13 14 14 14 15 15 16 15 14 14 14
7 6 1 5 5 9 9 11 14 15 13 12 12 12 12 11 11 10 10 10 10 9 9 8 8 7 7 7 8 8 9 9 9 9 9 8 9 8 7 7 8 8 7 7 7 8 7 7 5 5 5 5 6 6 6 6 6 6 6 7 7 7 6 6 6 6 7 8 9 12 12 11 10 12 13 13 13 13 14 15 15 14 14 14 14
7 13 9 7 5 5 8 11 11 11 12 12 11 11 11 10 10 10 10 10 9 9 8 7 7 8 7 7 8 7 7 7 8 7 9 8 8 7 6 6 7 6 5 6 6 5 5 5 5 5 5 6 6 6 6 6 6 7 6 7 8 7 6 5 6 6 7 9 9 11 11 10 10 11 11 12 13 13 14 14 14 14 15 14 13
8 7 9 9 7 13 7 10 11 11 10 11 11 11 10 10 10 10 9 9 9 8 8 7 8 7 7 7 7 7 7 7 7 7 7 7 6 7 7 6 6 6 5 6 6 5 5 4 4 5 6 6 6 6 6 6 6 6 7 6 7 7 7 6 6 7 7 6 8 10 10 11 10 9 11 12 11 12 12 13 14 14 14 13 12
7 9 9 9 7 4 9 7 5 12 10 10 10 10 9 10 10 10 8 9 8 8 7 7 7 7 7 7 6 6 7 7 7 7 7 7 7 6 6 6 5 6 6 5 5 5 5 4 4 5 5 5 5 5 5 6 5 5 5 6 6 7 7 6 5 6 7 7 6 8 8 11 9 8 8 10 11 10 11 12 13 13 13 13 14
7 3 8 7 5 7 6 11 9 7 8 10 9 9 8 9 9 9 9 9 7 7 8 7 6 7 7 7 7 6 6 6 6 6 7 7 7 6 6 6 5 6 6 5 4 5 5 4 4 4 5 5 5 5 5 5 5 5 5 5 5 6 7 6 5 5 6 6 7 7 7 8 10 9 9 10 9 9 11 11 12 12 12 13 14
10 9 5 7 3 7 4 3 6 10 9 8 8 9 8 8 8 8 8 8 8 7 7 6 6 6 7 7 7 6 5 6 6 5 6 7 6 6 6 6 6 6 6 6 5 5 4 4 4 3 4 4 4 4 4 5 5 5 5 5 5 5 6 6 6 5 5 5 6 6 8 6 9 11 8 8 8 9 9 9 9 10 11 12 12
8 8 10 12 12 10 5 7 7 6 9 9 9 8 9 9 9 8 8 8 8 7 7 6 6 6 7 7 6 6 6 6 6 6 6 6 7 6 6 6 6 6 6 6 5 5 4 4 4 3 3 3 4 3 4 4 5 5 5 5 4 4 5 6 6 5 5 5 6 5 6 7 6 11 11 8 8 9 9 9 9 10 11 12 12
7 9 10 12 13 14 13 9 8 8 9 11 9 9 8 9 9 9 8 8 7 6 6 7 6 6 6 7 6 7 6 6 6 6 6 6 7 6 6 5 5 5 5 7 7 5 4 4 4 3 3 3 3 4 3 3 4 4 5 4 4 4 4 4 5 6 6 5 4 6 6 6 7 5 9 12 10 8 8 9 10 11 11 11 11
9 10 9 14 13 8 10 11 11 11 10 8 8 9 9 9 8 8 8 9 8 6 6 6 6 6 6 7 7 7 7 6 7 7 6 6 7 7 7 6 5 5 5 5 6 6 5 4 4 3 3 3 3 4 3 3 4 4 4 4 3 4 4 4 4 4 5 6 4 4 4 5 5 6 6 6 6 9 9 10 9 6 9 11 11
9 10 11 12 15 10 9 8 10 13 11 9 5 8 9 9 9 9 8 8 8 8 6 6 6 6 6 7 6 6 7 7 7 7 7 6 7 7 7 6 6 6 5 5 5 5 5 5 4 4 3 3 2 3 3 3 4 4 4 3 3 4 3 4 4 4 4 5 5 5 4 3 4 5 6 7 7 7 7 8 9 9 9 9 11
10 11 9 10 13 12 11 9 12 14 12 12 12 10 7 7 7 7 8 9 8 8 8 7 6 6 6 6 7 7 6 7 7 7 6 6 7 7 7 6 7 6 5 5 5 6 5 4 4 4 3 4 3 3 2 3 3 4 4 3 3 3 2 3 4 4 4 4 4 5 4 4 4 4 4 5 6 8 9 9 10 11 9 9 11
5 9 12 11 14 15 13 13 14 13 12 12 13 10 9 8 8 8 7 8 8 8 7 7 6 5 6 6 8 7 7 6 6 7 6 7 7 7 7 7 7 6 6 6 6 5 5 6 5 5 4 4 5 4 3 2 2 3 3 3 3 3 3 2 3 3 4 3 4 5 5 5 5 4 4 4 5 7 10 8 8 9 9 11 10
7 7 9 12 13 14 14 13 13 10 9 10 11 10 8 8 7 7 7 8 7 7 6 6 6 6 6 6 7 7 7 7 7 6 6 7 7 6 7 8 8 6 6 6 6 6 6 6 6 6 6 5 4 4 3 2 1 2 3 3 3 3 3 3 3 4 4 4 4 5 4 5 4 5 5 4 4 4 7 10 10 9 9 9 9
1 5 5 9 10 9 11 13 13 12 11 11 11 10 9 8 8 7 8 8 6 6 7 6 6 6 6 6 7 7 7 7 7 6 5 6 6 7 7 8 7 7 6 7 7 7 7 6 7 7 6 7 5 4 3 2 2 2 3 4 3 3 2 3 3 3 4 4 4 4 5 5 5 5 5 5 4 4 5 6 7 8 9 11 9
7 6 6 5 10 11 11 12 13 12 9 10 10 10 10 9 9 8 8 8 8 8 7 6 6 6 6 7 7 7 7 7 7 7 6 5 5 6 7 8 7 7 7 8 8 8 8 8 8 8 8 7 6 5 4 4 2 3 4 4 3 3 4 3 4 4 5 5 5 5 5 5 6 6 6 6 6 6 6 6 6 6 7 13 11
11 11 8 10 11 11 11 13 11 13 10 10 10 10 10 9 9 9 9 8 8 8 7 7 7 6 6 7 7 6 6 7 7 7 7 6 6 5 6 8 8 8 8 8 8 8 8 8 7 7 8 8 7 7 5 4 4 4 4 5 5 4 4 4 6 6 6 5 5 6 5 5 6 6 7 6 6 6 6 6 6 6 5 8 10
11 11 11 12 14 13 11 11 11 12 12 12 12 11 10 10 9 8 8 8 9 8 8 8 7 5 6 6 6 7 7 7 7 7 7 8 7 6 6 7 8 8 8 8 9 8 8 8 7 7 7 9 7 8 6 6 6 6 5 5 5 6 6 7 7 8 7 7 7 6 6 7 7 7 7 6 7 7 7 7 6 6 5 7 8
7 8 10 13 14 13 11 10 10 11 12 13 12 11 9 10 9 8 8 7 7 7 7 7 7 6 6 7 7 7 7 7 7 8 7 8 8 7 6 7 9 8 8 9 9 9 8 9 9 7 7 7 7 7 8 9 6 6 5 4 5 6 6 6 7 8 8 8 7 7 7 7 8 7 6 7 8 8 8 7 7 7 7 6 6
8 10 10 13 11 11 10 10 11 12 12 12 11 10 10 10 9 7 7 6 6 7 7 6 7 7 7 7 7 7 8 7 8 8 8 7 8 8 7 7 9 9 9 9 9 10 10 9 9 9 8 7 8 7 8 9 8 5 7 6 4 4 5 8 7 8 9 9 8 8 7 8 8 8 7 8 8 7 7 8 8 8 8 7 6
9 9 9 9 7 10 11 11 11 12 10 9 9 7 8 7 7 6 5 6 5 6 7 7 7 7 7 8 8 9 9 8 8 9 8 8 8 8 8 8 8 10 9 10 9 9 10 10 10 9 10 8 8 7 8 9 9 8 7 5 5 5 6 2 6 5 7 8 10 10 8 9 8 8 8 8 8 7 7 8 8 8 9 8 8
6 7 7 8 8 9 10 12 11 5 1 3 5 4 3 8 9 9 8 8 9 9 8 8 8 8 8 7 9 9 9 8 8 8 9 8 9 9 10 9 9 9 9 9 9 9 10 10 10 10 10 10 7 7 7 8 9 9 10 8 7 6 2 3 4 5 7 6 6 8 8 8 8 8 8 8 9 8 7 7 8 9 9 9 9
5 4 4 5 8 9 10 10 1 7 7 7 9 8 10 9 10 10 9 8 8 7 6 6 6 7 7 8 8 8 9 9 8 8 9 9 9 9 10 9 9 9 9 9 9 9 9 10 9 10 9 9 10 8 8 8 8 9 9 9 10 8 6 5 6 3 6 7 6 7 7 9 9 9 9 9 9 8 8 8 8 9 9 9 9
11 6 5 5 7 9 9 3 7 8 10 9 11 11 7 9 9 8 7 6 5 3 5 6 6 6 6 6 7 7 8 8 9 9 10 10 10 9 9 9 10 10 9 10 10 9 8 8 9 10 10 9 10 9 9 8 8 7 8 9 9 9 10 10 9 7 6 5 7 7 7 8 8 8 8 8 9 8 8 9 9 9 9 10 9
11 10 9 7 7 8 2 9 7 7 7 10 6 7 8 9 9 9 8 7 7 6 4 3 3 4 5 5 6 6 7 8 8 9 10 10 10 9 9 10 10 10 9 9 10 10 11 10 9 9 10 9 9 9 8 8 8 8 7 9 9 9 8 9 9 9 8 7 8 7 8 7 7 8 8 8 8 8 7 8 8 9 8 9 9
9 9 9 7 5 4 5 12 8 4 5 6 4 8 9 8 8 9 9 9 7 7 7 9 6 5 1 2 5 7 7 6 8 9 9 10 10 10 10 11 11 10 9 10 10 11 10 11 11 10 10 11 10 10 10 8 8 8 8 7 8 8 8 8 9 9 10 11 9 8 7 8 9 8 9 9 10 9 8 8 9 9 9 8 9
9 10 9 9 7 4 8 11 8 6 7 9 9 9 10 10 9 10 10 8 8 7 6 7 6 5 7 8 7 5 9 8 7 8 10 10 10 11 10 10 10 10 9 10 10 9 10 10 10 11 12 12 10 10 11 11 9 8 9 8 8 8 8 9 8 8 9 9 9 10 9 8 8 7 9 10 9 9 8 8 8 9 9 9 8
Wind_Direction
160 146 141 133 138 138 138 136 133 134 132 130 123 116 118 119 119 120 119 117 118 119 120 121 121 121 121 120 117 113 114 115 114 114 113 113 111 109 109 107 105 103 102 102 101 96 92 89 87 84 80 78 76 75 71 71 71 73 76 78 78 80 83 85 86 84 84 85 85 83 81 79 75 75 84 79 71 68 68 68 67 68 67 68 66
157 147 140 141 138 138 140 138 136 135 130 122 122 119 120 121 122 120 119 120 121 122 122 122 123 122 123 121 117 115 117 116 116 117 115 112 109 108 109 108 105 103 101 100 97 95 92 90 86 82 80 80 80 77 74 72 71 74 77 78 80 81 83 86 86 86 91 89 88 87 83 79 77 76 73 71 70 67 65 64 62 66 68 67 65
145 142 141 138 139 139 142 140 138 136 134 131 128 126 125 125 123 122 122 123 124 124 122 123 122 124 124 120 118 119 117 116 117 116 114 112 110 111 110 109 106 103 100 97 93 89 86 84 88 88 82 81 81 79 77 74 74 74 77 78 80 83 86 87 90 94 94 95 95 95 86 78 73 72 73 72 70 68 66 61 59 63 66 64 67
144 142 141 139 139 140 143 140 138 136 135 135 135 132 130 127 126 124 124 125 126 126 125 124 123 123 122 120 120 121 119 118 118 116 113 110 110 111 110 107 105 102 99 95 92 91 91 92 93 97 93 84 80 79 76 75 74 75 77 79 79 83 85 86 89 94 100 103 102 99 94 88 80 73 73 71 71 70 68 68 68 68 71 69 68
144 143 140 143 142 142 146 144 140 139 138 136 135 132 130 129 125 125 127 127 128 127 126 125 125 124 124 123 122 122 120 118 117 115 112 111 111 112 111 108 105 101 99 97 95 94 92 91 95 100 100 86 80 80 77 74 74 75 76 78 80 82 85 84 84 90 96 100 102 97 83 87 82 75 74 73 73 71 71 73 75 76 77 78 77
139 139 141 140 138 140 143 145 142 141 139 138 135 133 131 128 127 128 128 129 128 128 127 127 127 127 126 125 125 122 120 119 118 116 114 113 112 112 111 108 104 102 100 98 96 92 87 87 93 97 95 91 86 82 80 77 75 74 76 78 81 82 84 88 89 89 96 104 102 85 83 83 83 79 77 76 72 70 70 71 72 74 74 73 74
139 139 140 139 137 143 144 145 143 140 139 137 135 134 131 132 131 131 130 129 130 130 130 130 129 129 128 126 124 124 122 121 119 117 116 114 113 114 112 108 105 102 100 98 96 92 89 88 92 98 102 96 87 83 81 78 77 76 79 81 80 82 78 76 75 67 84 124 77 78 81 79 80 76 72 74 72 70 70 68 69 71 68 66 64
142 140 139 136 139 142 143 142 141 141 136 136 135 133 134 135 133 133 132 132 134 133 132 130 128 130 132 128 127 126 125 124 121 118 116 114 115 116 112 109 105 103 101 99 97 94 90 87 89 96 99 95 88 85 84 83 80 81 81 82 81 85 88 92 93 70 27 66 69 68 73 75 76 77 71 73 74 80 78 70 68 69 70 70 80
142 139 139 138 139 143 143 141 140 139 135 135 138 136 137 138 137 135 134 135 135 136 133 129 130 132 131 129 128 128 125 122 120 119 116 116 116 116 114 111 108 104 101 100 98 94 91 90 92 92 93 92 88 86 85 83 83 83 81 82 82 85 98 106 126 144 88 62 63 74 79 79 74 77 74 73 66 64 74 96 87 72 67 68 72
141 139 138 138 144 145 142 143 141 141 139 141 140 139 140 140 138 137 136 136 136 135 132 128 130 130 128 127 126 126 124 121 112 105 115 121 119 117 114 112 110 104 101 100 100 98 94 94 94 92 90 89 88 88 86 85 84 81 81 82 84 77 74 88 91 68 71 81 79 67 53 60 73 71 75 70 72 72 68 66 69 70 74 78 79
143 141 142 141 148 148 144 146 143 142 142 142 144 143 142 141 139 138 136 136 135 134 133 130 129 127 127 128 128 128 128 117 108 107 113 122 122 118 114 111 108 103 101 101 101 99 97 96 93 91 90 89 88 86 85 84 84 85 87 86 70 52 12 307 103 76 79 80 81 84 82 69 70 73 79 79 80 81 81 81 80 80 82 80 75
149 147 144 144 145 150 145 146 147 145 143 144 145 143 142 140 139 138 137 134 134 134 132 130 127 125 124 125 124 125 123 116 114 110 116 121 121 117 113 107 101 100 101 101 101 101 100 98 96 95 92 89 87 87 87 87 86 87 84 77 66 48 31 22 70 75 69 66 65 65 70 75 75 81 86 86 86 81 77 79 80 80 75 74 73
151 151 143 142 149 149 146 147 151 150 146 147 146 144 142 141 140 139 137 136 133 134 134 131 131 131 129 124 124 123 122 120 118 116 115 116 118 115 110 108 107 104 102 102 103 103 102 101 100 97 93 91 90 89 89 90 89 88 85 79 75 68 44 48 78 68 69 74 78 77 79 81 80 79 78 78 80 80 83 84 82 85 85 82 80
155 149 143 146 147 152 148 148 154 153 149 149 147 145 144 142 141 140 137 135 132 134 133 134 134 131 128 127 125 123 124 124 122 119 115 117 119 116 113 111 108 106 104 106 107 106 104 103 100 96 94 92 92 93 91 89 89 88 84 80 74 80 103 74 70 85 92 81 75 79 78 77 77 77 83 86 88 88 81 74 77 83 81 82 83
156 148 147 148 146 154 151 151 157 154 150 149 146 145 144 142 139 137 136 132 130 130 134 136 135 132 130 129 128 127 126 126 125 123 123 122 120 118 115 112 109 108 108 110 111 108 105 103 100 98 96 95 92 91 92 92 90 86 80 71 53 16 93 103 106 92 83 81 84 86 83 83 82 88 89 90 87 86 86 84 84 82 86 86 82
158 152 149 147 150 151 154 155 158 154 150 149 146 145 143 141 138 137 135 132 131 132 135 137 136 135 133 133 132 129 127 127 126 126 125 122 118 116 114 112 111 112 111 113 114 110 107 105 104 102 100 99 98 97 95 94 91 86 80 73 58 42 54 73 84 90 87 87 88 83 87 88 87 86 85 83 85 86 88 88 88 83 78 81 82
160 156 151 150 152 153 153 159 157 155 151 150 146 145 143 141 139 137 135 135 133 134 134 137 136 135 134 131 129 127 126 126 126 125 125 123 120 118 116 114 114 113 114 115 114 112 109 108 107 106 105 103 101 99 96 95 93 89 86 84 80 37 67 79 88 80 79 81 81 82 89 92 87 87 86 91 95 94 89 81 81 84 81 82 83
164 163 156 153 154 157 153 156 157 159 154 152 148 146 143 142 140 138 140 138 134 135 138 139 138 134 132 131 129 127 126 126 126 123 123 123 121 120 119 116 115 115 115 116 117 114 112 111 109 109 107 105 102 101 100 96 93 93 93 92 84 77 82 85 84 86 87 85 87 87 91 87 93 95 93 93 94 92 90 90 90 87 91 91 93
167 167 159 158 158 157 155 153 160 160 156 155 155 149 148 146 143 143 144 139 139 140 142 142 139 135 133 133 129 128 127 126 125 122 122 125 123 123 119 118 117 118 116 117 119 118 114 114 113 111 109 106 104 104 102 97 96 99 105 106 94 92 97 87 85 99 105 107 101 98 97 106 100 97 97 97 92 91 94 95 95 95 94 92 89
169 169 167 164 161 158 156 155 160 158 158 157 156 153 152 149 148 147 145 144 145 144 144 143 141 138 136 134 131 130 131 127 125 123 122 124 127 121 118 117 118 119 118 119 123 121 118 118 115 115 111 109 107 105 102 100 100 107 121 137 122 100 89 92 91 85 82 82 96 95 104 105 103 106 105 98 97 102 100 99 98 96 92 93 94
174 174 170 168 163 161 157 157 161 155 156 154 154 155 151 152 150 148 147 148 146 146 144 144 143 140 141 138 144 140 132 133 138 125 136 125 118 120 120 117 119 120 122 122 123 123 122 121 122 119 119 115 109 105 101 102 109 119 138 137 103 86 89 95 101 100 96 98 91 102 110 109 106 99 102 105 103 100 100 101 98 95 96 97 95
177 177 174 170 168 161 160 159 158 157 153 153 153 155 155 159 152 150 151 150 149 147 152 152 152 145 146 156 146 137 139 132 125 134 123 127 127 124 122 118 119 121 121 124 124 124 126 127 128 132 132 134 141 120 109 104 119 146 160 114 87 87 91 91 95 102 102 100 98 109 120 110 109 112 108 106 109 108 105 99 100 98 94 94 99
180 177 176 173 171 168 162 160 160 156 151 152 151 152 158 161 156 154 153 155 152 160 158 158 157 152 162 152 143 140 136 129 136 129 123 118 120 125 120 119 121 122 125 126 128 126 128 133 138 145 157 170 166 110 117 115 129 181 179 88 83 86 95 103 104 96 90 86 95 116 116 111 104 108 112 115 107 100 104 107 105 101 100 99 98
184 177 170 174 170 170 167 162 159 154 154 152 151 154 160 160 158 158 158 159 159 168 161 167 159 161 155 148 144 135 134 123 90 108 122 131 126 125 122 122 123 126 130 130 130 129 130 137 155 171 183 184 106 110 109 111 102 97 86 96 92 95 92 92 88 89 96 100 101 121 120 119 123 120 117 110 110 113 112 108 110 110 111 112 110
343 109 4 170 167 159 161 160 160 157 162 153 152 157 160 159 160 160 162 161 167 168 163 168 160 159 154 157 137 140 135 133 142 142 136 133 136 137 139 140 139 138 159 132 140 143 160 154 165 201 119 112 106 99 98 105 99 96 95 98 101 96 96 92 86 85 98 101 110 125 125 126 125 119 120 121 120 120 119 116 114 116 116 113 111
168 91 346 349 160 151 152 153 160 163 156 158 159 152 161 163 160 160 164 165 168 167 166 166 160 164 162 151 136 142 145 144 149 138 135 136 139 142 146 141 145 148 161 146 142 160 154 158 157 138 123 106 108 101 103 104 115 106 95 95 103 103 99 100 97 102 101 105 118 127 128 123 119 120 124 121 122 124 119 121 121 119 117 116 115
148 136 160 174 162 149 164 159 156 157 157 162 153 157 166 161 163 163 166 166 165 167 167 166 161 163 164 147 153 150 146 147 143 143 139 143 140 142 140 147 147 154 161 149 146 150 148 142 142 124 118 119 111 115 115 103 101 111 102 95 99 102 101 107 104 101 94 108 124 125 122 127 129 123 127 126 127 127 127 125 125 124 122 120 119
146 133 160 158 153 161 163 168 158 156 157 158 153 165 164 160 161 157 174 159 166 170 164 164 154 165 158 156 164 155 148 146 148 147 139 136 142 144 143 149 154 154 161 150 152 147 143 143 134 133 126 121 125 120 107 115 109 104 106 101 96 100 102 106 106 105 110 109 120 127 130 133 136 133 128 126 127 129 130 129 127 126 124 126 123
136 141 156 149 143 143 145 136 180 156 158 156 163 165 158 163 160 166 164 154 172 169 161 156 163 163 161 159 169 157 155 151 151 149 145 140 143 147 149 148 161 146 158 158 148 144 144 148 149 138 131 126 125 124 126 113 125 116 116 106 101 101 106 107 111 113 114 121 118 125 141 144 142 138 132 131 134 135 134 135 134 133 130 130 130
42 104 166 126 119 157 145 140 182 173 158 162 166 157 159 161 165 168 150 165 167 164 154 163 164 166 164 169 163 158 159 154 150 152 147 141 145 148 152 151 157 152 161 158 153 154 147 143 154 151 142 134 126 121 126 130 118 124 117 116 114 103 106 114 114 110 107 111 115 127 143 143 147 142 137 138 141 142 138 137 140 138 138 135 137
140 124 113 99 120 94 150 221 180 152 168 175 167 156 154 159 167 164 158 173 157 155 165 162 167 171 166 169 165 161 159 151 149 157 148 150 148 153 155 152 158 161 163 156 168 158 155 156 153 151 149 140 125 133 132 125 127 124 114 128 115 108 106 109 111 118 120 119 118 130 133 157 146 144 140 140 147 146 143 144 143 146 144 140 137
155 138 142 160 155 158 165 177 216 167 162 170 168 163 168 170 165 170 168 167 156 167 163 163 169 170 164 168 169 165 164 147 154 164 157 157 155 156 151 161 157 160 167 158 163 162 160 152 144 156 146 147 136 133 122 135 130 120 130 118 123 116 108 110 122 124 120 119 132 127 138 142 155 148 152 153 154 155 151 149 152 149 148 150 148
145 154 150 158 161 160 166 195 200 175 164 170 172 171 172 175 175 175 177 164 173 171 168 166 166 163 165 172 171 170 173 156 159 170 163 166 157 158 158 159 163 159 158 164 156 163 161 151 160 157 162 157 151 138 146 130 123 124 129 131 123 121 111 114 114 125 128 129 124 138 149 149 142 159 162 164 165 159 154 152 165 156 151 147 154
148 153 158 160 164 170 165 166 188 186 175 175 183 184 178 176 180 181 174 177 180 178 170 169 164 164 167 173 177 175 181 168 170 170 179 167 162 168 165 166 162 157 149 155 166 172 168 174 169 179 169 184 165 154 156 147 126 132 135 133 142 125 137 120 120 118 126 131 135 152 159 146 152 163 162 178 172 162 163 169 174 159 153 162 160
155 158 177 162 166 166 167 175 173 178 179 160 194 215 186 181 183 187 182 183 183 183 176 176 170 168 168 171 181 181 188 178 178 175 183 177 171 171 172 172 160 167 167 173 176 174 171 176 184 190 173 207 186 172 167 147 137 140 127 157 142 143 147 133 132 130 132 128 147 168 161 157 161 170 165 169 174 187 173 181 180 176 175 165 165
163 172 167 170 166 161 169 172 181 178 173 170 173 193 179 183 184 185 184 188 190 189 182 179 180 171 174 169 178 182 190 186 183 182 183 188 181 175 180 167 161 174 177 165 194 178 176 191 175 198 191 207 190 199 189 152 149 131 137 153 144 156 163 149 147 154 142 159 148 156 166 169 180 181 174 177 175 167 187 191 184 189 181 178 177
183 182 178 176 172 163 165 175 193 181 174 176 177 176 175 186 189 185 188 188 200 198 183 181 189 179 174 174 173 180 188 187 187 189 194 195 190 182 178 164 172 177 174 174 194 192 176 188 187 202 209 225 209 199 206 174 169 152 146 159 157 172 169 160 170 166 161 184 158 161 177 183 176 168 187 193 179 164 180 189 185 190 189 186 187
203 213 204 193 186 170 170 175 183 180 181 187 187 174 174 185 185 184 188 192 205 210 186 187 195 193 176 175 168 177 184 187 194 191 204 206 196 189 173 169 183 177 177 184 192 195 191 193 192 199 206 230 235 205 205 210 209 162 170 170 178 191 181 177 175 189 192 194 189 178 174 190 190 190 199 201 200 184 170 181 196 204 204 203 204
309 228 219 225 202 190 179 171 178 176 182 181 188 183 177 185 185 186 188 192 193 217 199 196 199 196 183 172 167 174 180 184 191 196 209 211 203 192 181 174 185 183 180 189 190 194 192 194 198 192 208 217 229 227 214 209 206 210 189 190 188 202 206 199 199 207 214 212 210 202 187 188 194 201 205 197 210 206 196 183 186 199 194 202 209
183 227 173 244 250 202 192 180 185 179 175 180 187 189 185 187 184 182 190 196 197 201 199 206 202 197 181 174 169 175 177 182 185 194 212 219 219 202 187 177 187 188 185 195 195 193 189 190 199 198 196 211 219 229 206 221 199 198 185 192 204 200 224 226 226 223 223 213 225 217 215 197 198 202 214 219 190 202 210 202 202 209 194 177 197
193 205 190 188 231 222 195 188 183 178 175 181 188 190 191 190 187 185 187 188 198 196 196 207 206 197 180 174 172 174 179 176 187 191 202 211 224 218 197 189 190 195 191 197 200 199 190 192 196 201 200 202 206 208 207 215 199 197 187 200 197 199 206 227 242 237 234 232 224 226 224 222 211 197 209 220 220 208 208 206 211 221 206 159 183
200 187 204 212 209 218 210 194 184 186 188 193 193 195 192 195 189 186 189 194 195 197 198 201 204 190 178 171 172 177 183 184 189 195 202 213 215 217 209 201 198 200 198 196 196 201 191 191 192 194 207 206 207 198 192 205 207 215 201 196 208 200 201 204 224 233 236 234 232 231 228 229 228 215 211 209 220 226 219 209 216 212 219 174 185
200 203 211 220 222 218 208 198 198 197 200 201 200 192 188 197 194 183 186 194 200 204 204 199 193 192 180 181 178 177 184 192 193 197 202 209 217 220 214 210 207 205 201 197 194 197 199 199 193 200 196 206 216 194 191 208 224 217 216 222 212 212 195 220 222 229 225 229 231 232 229 231 230 227 217 213 219 221 221 222 217 219 217 221 194
203 212 219 227 226 224 215 203 202 204 205 201 204 194 185 181 181 172 178 200 196 194 201 198 196 193 187 189 183 182 185 194 197 201 203 207 216 222 221 216 212 212 208 205 202 204 200 204 202 203 198 199 209 198 200 207 239 208 212 215 204 223 215 208 200 202 212 216 226 231 228 228 237 231 230 224 227 229 222 222 219 223 225 222 226
203 207 210 223 224 231 229 217 213 210 210 199 192 191 175 176 170 166 179 195 200 191 199 201 201 197 202 190 189 184 188 194 196 204 210 208 215 224 225 220 218 216 219 216 208 206 203 204 203 205 200 202 202 203 199 212 223 240 249 212 210 213 240 138 188 181 198 207 213 222 220 228 228 231 236 239 236 233 233 228 228 228 224 225 220
234 222 213 213 225 238 238 234 231 226 319 190 148 69 154 190 178 178 185 197 201 200 202 202 202 205 209 203 194 189 191 194 198 205 213 215 213 222 226 224 217 219 221 229 223 214 211 209 204 209 206 202 212 203 209 206 219 226 242 259 278 297 259 178 213 188 184 214 215 223 219 222 225 227 235 240 238 238 234 230 226 231 228 225 222
281 274 255 234 233 241 247 244 256 63 62 67 104 163 202 198 194 191 192 195 202 202 203 198 210 212 212 208 200 193 195 193 205 211 214 217 219 220 221 224 222 217 220 228 231 225 219 218 210 214 217 206 205 218 215 212 213 223 228 243 257 260 258 235 216 250 226 197 217 216 215 216 218 228 230 232 237 234 235 239 229 226 228 227 226
359 339 300 271 262 255 251 340 90 115 138 153 184 186 183 192 196 201 197 198 209 197 204 199 203 217 218 210 210 208 204 204 207 215 216 216 219 218 218 219 225 222 222 224 230 229 230 226 224 221 222 222 212 216 216 218 219 221 218 233 241 251 256 253 261 265 272 259 210 213 225 215 219 222 229 233 232 230 227 232 235 230 228 227 226
16 5 347 326 291 272 230 97 111 155 162 173 166 173 188 195 192 193 196 193 184 197 170 257 202 213 215 208 224 211 198 211 212 213 215 214 209 215 217 218 220 226 227 231 232 234 232 233 228 223 226 229 228 224 225 222 218 225 213 220 230 236 240 245 251 244 253 253 256 223 216 209 227 231 226 223 229 232 228 224 230 239 229 230 229
12 14 12 345 333 342 106 124 150 221 142 140 139 171 188 199 202 197 202 199 190 205 180 188 179 184 210 321 343 309 268 203 214 218 215 214 211 211 217 223 226 229 235 239 239 238 239 236 234 232 230 231 233 231 228 228 225 227 228 225 233 235 240 243 235 238 241 251 263 255 229 204 220 224 221 219 220 225 222 218 222 233 234 231 226
11 18 22 10 358 10 119 166 170 156 159 163 167 186 192 192 196 200 207 203 201 204 213 205 180 159 175 172 178 212 272 266 205 210 212 216 214 214 219 223 228 233 237 241 242 241 240 240 237 235 236 234 235 234 232 234 235 231 232 231 231 230 237 238 236 229 241 244 239 246 256 253 243 240 207 208 216 221 217 213 219 223 228 229 230